Location: Macksville High School
(37.9611°N, 99.9654°W)
Time: 13:40:23
(UTC+00:00)

Cosmos 1862 - Pass Details

Date: 27 February 2020
Orbit: 538 x 557 km, 82.5° (Epoch: 29 March)

Event Time Altitude Azimuth Distance (km) Brightness Sun altitude
Rises 12:01:52 0° 341° (NNW) 2,701 6.7 -15.2°
Reaches altitude 10° 12:04:12 10° 331° (NNW) 1,807 5.7 -14.7°
Maximum altitude 12:07:42 30° 269° (W) 977 4.0 -14.0°
Drops below altitude 10° 12:11:11 10° 207° (SSW) 1,801 5.7 -13.3°
Sets 12:13:30 0° 197° (SSW) 2,692 6.7 -12.9°
